Flag for Canada Weather past 2 weeks in Port Coquitlam, British Columbia, Canada

Now
55 °F

Cool.


Feels Like: 54 °F
Forecast: 46 / 54 °F
Wind: 6 mph from North

Location: P. Meadows Coastal Station

Current Time: Jan 25, 2015 at 12:55:43 PM

Latest Report: Jan 25, 2015 at 12:00 PM


Visibility: N/A

Pressure: 30.16 "Hg

Humidity: 88%

Dew point: 52 °F

Location of Port CoquitlamLocation

Historic Weather in Port Coquitlam — Graph

°F

Port Coquitlam temperature yesterday

Maximum temperature yesterday: 52 °F (at 12:00 AM)
Minimum temperature yesterday: 48 °F (at 11:00 PM)
Average temperature yesterday: 50 °F

Past Weeks' High & Low Weather Summary

 TemperatureHumidityPressure
High54 °F (Jan 23, 10:00 PM)100% (Jan 10, 9:00 PM)30.50 "Hg (Jan 10, 9:00 PM)
Low29 °F (Jan 15, 5:00 AM)62% (Jan 19, 4:00 PM)29.47 "Hg (Jan 18, 1:00 AM)
Average43 °F94%30.20 "Hg
* Reported Jan 10 11:00 AM — Jan 25 11:00 AM, Port Coquitlam, Weather by CustomWeather, © 2014

Note: Actual official high and low records may vary slightly from our data, if they occured in-between our weather recording intervals... More about our weather records

Advertising

Port Coquitlam weather history for previous 24 hours

 ConditionsComfort  
Time TempWeatherWind HumidityBarometerVisibility
11:00 AM
Jan 25
53 °FCool.2 mph99%30.17 "HgN/A
10:00 AM51 °FCool.2 mph92%30.18 "HgN/A
9:00 AM51 °FCool.No wind99%30.18 "HgN/A
8:00 AM47 °FCool.2 mph99%30.18 "HgN/A
7:00 AM47 °FCool.2 mph99%30.19 "HgN/A
6:00 AM47 °FCool.No wind99%30.19 "HgN/A
5:00 AM47 °FCool.1 mph99%30.20 "HgN/A
4:00 AM47 °FCool.1 mph99%30.19 "HgN/A
3:00 AM49 °FCool.No wind99%30.19 "HgN/A
2:00 AM49 °FCool.No wind99%30.19 "HgN/A
1:00 AM49 °FCool.1 mph99%30.18 "HgN/A
12:00 AM48 °FCool.1 mph99%30.19 "HgN/A
11:00 PM
Jan 24
48 °FCool.2 mph99%30.18 "HgN/A
10:00 PM49 °FCool.1 mph100%30.17 "HgN/A
9:00 PM49 °FCool.No wind99%30.16 "HgN/A
8:00 PM50 °FCool.1 mph98%30.18 "HgN/A
7:00 PM51 °FCool.No wind99%30.18 "HgN/A
6:00 PM51 °FCool.1 mph99%30.19 "HgN/A
5:00 PM51 °FCool.No wind92%30.19 "HgN/A
4:00 PM51 °FCool.2 mph92%30.20 "HgN/A
3:00 PM52 °FCool.1 mph98%30.20 "HgN/A
2:00 PM51 °FCool.2 mph98%30.22 "HgN/A
1:00 PM51 °FCool.2 mph98%30.24 "HgN/A
12:00 PM51 °FCool.7 mph98%30.26 "HgN/A
Weather by CustomWeather, © 2014

See weather overviewHow to use our weather pages